Vorticity
6 7 6 9 5 4 4 6 7 8 7 6 8 7 6 6 6 3 5 6 8 8 7 7 7 7 7 9 10 8 9 7 14 39 30 17 15 15 16 13 15 18 19 17
5 7 6 10 5 4 6 6 9 10 10 10 9 10 11 9 7 6 5 6 8 7 7 7 7 7 6 9 9 9 8 6 11 31 32 22 13 15 15 13 11 11 21 16
4 7 6 11 7 6 8 10 10 8 6 6 7 8 12 8 9 11 7 5 8 7 7 7 7 7 7 8 9 12 8 7 9 17 37 27 16 14 14 14 11 12 17 16
5 7 7 6 7 7 10 7 8 6 8 8 7 8 8 12 10 11 10 6 8 8 7 7 7 6 7 7 9 10 11 8 5 8 26 33 23 13 15 14 12 9 11 16
6 7 8 9 3 9 9 5 6 8 9 9 7 6 8 6 12 10 10 6 8 8 7 6 7 7 7 7 8 9 12 8 8 6 12 33 29 18 14 16 14 12 10 11
11 7 7 6 5 9 8 4 7 7 7 7 5 5 5 6 13 10 10 7 7 8 6 7 6 8 7 7 9 10 11 11 9 8 7 16 36 27 16 16 17 17 13 10
8 6 8 4 5 9 8 7 6 6 7 7 7 7 6 6 12 10 10 7 7 7 6 6 6 8 7 7 9 9 8 13 9 9 8 9 26 32 21 13 16 15 18 14
11 9 6 5 7 9 6 6 6 6 7 6 8 8 7 7 11 10 9 7 7 6 6 6 7 7 7 7 9 9 9 11 12 8 8 8 11 36 25 16 13 14 13 20
13 8 6 5 6 8 8 5 6 8 8 5 7 7 8 7 12 9 8 7 7 6 5 6 7 8 8 8 9 9 10 9 14 8 10 8 10 28 34 18 15 14 12 12
13 10 6 4 7 6 7 5 7 8 7 6 7 8 9 7 11 9 8 7 6 5 6 7 8 7 7 9 8 9 10 9 12 12 8 10 6 13 43 25 15 14 13 13
14 11 4 4 7 6 9 5 6 7 7 6 8 8 9 7 11 8 8 7 6 5 6 7 7 8 8 8 8 10 9 9 9 14 7 10 1 18 26 38 23 15 15 12
8 6 6 3 7 4 8 6 7 6 7 7 8 8 9 8 10 8 8 7 6 5 6 7 7 7 8 9 9 8 10 8 8 12 13 11 6 3 19 40 27 18 15 15
9 9 5 8 6 4 6 4 6 6 7 8 9 8 9 8 9 8 7 7 5 6 7 8 8 7 8 7 9 9 9 11 7 10 11 10 10 7 13 25 37 19 17 14
11 7 9 6 6 6 5 6 6 5 8 8 10 10 7 8 8 9 7 6 6 6 7 7 7 9 9 8 8 9 9 9 10 9 11 10 8 9 11 25 36 21 15 15
17 9 6 12 5 6 6 6 5 5 10 10 10 10 7 7 9 8 6 6 6 6 6 7 8 8 9 10 9 9 9 9 10 8 11 11 10 8 6 16 33 28 15 15
14 11 8 9 6 8 6 7 5 8 10 11 11 10 9 8 8 6 5 6 7 6 6 6 6 7 9 8 10 9 8 12 9 11 9 11 11 7 10 9 27 32 21 14
21 11 8 9 8 7 7 5 7 9 12 11 11 10 8 8 7 6 5 5 6 6 7 6 6 6 9 8 10 10 10 9 9 11 8 12 9 8 6 7 18 38 24 18
23 12 8 8 8 7 5 7 8 11 12 12 9 8 8 8 6 5 5 6 5 6 6 6 7 7 9 8 10 9 10 9 9 11 10 10 9 10 7 5 12 29 33 18
23 10 8 11 8 3 6 7 7 11 13 12 9 8 8 6 5 5 5 6 6 6 6 6 6 7 9 8 11 10 10 11 9 11 10 9 14 9 6 8 6 16 34 26
24 8 4 7 5 3 6 7 8 9 14 11 9 8 7 5 5 5 6 5 5 7 7 8 8 8 9 9 11 10 9 11 10 10 11 10 11 10 9 6 7 11 28 27
21 7 7 6 5 5 6 7 9 11 12 10 9 6 7 5 5 6 6 6 6 7 7 7 6 9 9 9 10 11 11 10 10 12 12 10 9 14 10 8 8 3 17 30
10 10 7 5 3 6 8 9 11 12 12 9 8 8 7 4 5 6 6 7 7 8 6 8 7 7 9 8 10 10 11 10 11 12 11 10 11 12 9 10 8 -0 13 24
10 9 6 2 4 6 8 14 11 9 13 11 10 9 4 4 5 6 6 7 8 7 8 8 6 6 9 10 10 9 11 10 11 11 12 11 11 11 13 8 6 11 0 18
17 13 7 5 4 6 8 14 11 10 10 12 10 6 5 6 5 5 7 6 7 7 7 7 7 6 8 9 10 9 9 12 11 12 12 12 9 11 13 8 7 13 1 7
15 9 8 8 9 10 9 12 10 8 12 12 11 8 6 6 5 6 5 6 6 5 6 6 6 7 8 9 9 11 7 11 14 13 12 11 10 11 12 10 9 6 14 -1
18 16 13 7 5 11 14 11 12 9 7 10 11 11 8 7 6 5 5 6 6 5 5 5 6 7 9 10 9 10 11 8 14 13 12 11 11 11 11 12 10 7 14 -0
14 15 24 18 5 9 14 13 8 8 10 9 10 10 6 5 4 4 5 5 5 5 5 6 6 8 8 10 11 7 10 10 12 13 13 11 10 11 11 13 10 8 14 3
Height
5785 5785 5785 5785 5785 5784 5782 5780 5778 5775 5771 5766 5762 5757 5751 5746 5739 5733 5725 5717 5709 5701 5691 5681 5670 5659 5647 5635 5622 5608 5593 5578 5562 5547 5538 5533 5529 5526 5524 5521 5518 5516 5514 5515
5781 5782 5782 5782 5781 5781 5779 5776 5774 5771 5767 5763 5758 5753 5748 5742 5737 5729 5722 5716 5708 5698 5689 5678 5668 5657 5646 5634 5621 5607 5593 5578 5562 5548 5538 5532 5527 5523 5521 5518 5515 5513 5511 5510
5778 5778 5779 5779 5778 5777 5775 5774 5771 5768 5764 5759 5755 5750 5746 5739 5732 5726 5720 5714 5705 5695 5686 5676 5666 5655 5645 5632 5619 5607 5593 5579 5564 5550 5538 5531 5526 5521 5518 5516 5513 5511 5508 5507
5774 5775 5776 5775 5774 5773 5771 5770 5768 5764 5760 5755 5751 5747 5743 5736 5729 5724 5718 5710 5702 5693 5685 5674 5665 5653 5642 5631 5619 5607 5594 5581 5567 5553 5540 5530 5524 5519 5515 5512 5510 5507 5505 5504
5769 5771 5773 5773 5771 5770 5768 5766 5763 5761 5757 5753 5749 5744 5739 5733 5727 5721 5714 5707 5699 5692 5682 5672 5662 5652 5641 5630 5619 5607 5594 5582 5569 5555 5542 5531 5523 5517 5513 5509 5505 5503 5501 5499
5766 5767 5768 5769 5767 5766 5764 5762 5759 5756 5752 5749 5745 5740 5736 5731 5724 5718 5712 5704 5697 5690 5680 5670 5660 5650 5640 5629 5619 5607 5595 5583 5571 5557 5545 5532 5522 5515 5510 5506 5502 5499 5496 5494
5760 5763 5764 5764 5763 5763 5761 5762 5756 5752 5749 5745 5743 5738 5732 5727 5721 5715 5709 5701 5694 5687 5678 5668 5658 5649 5639 5629 5618 5606 5594 5584 5571 5559 5546 5534 5522 5513 5507 5503 5499 5496 5492 5490
5756 5759 5759 5759 5759 5759 5757 5755 5752 5749 5746 5742 5739 5735 5729 5724 5717 5711 5705 5699 5691 5684 5676 5666 5657 5647 5638 5628 5617 5605 5594 5583 5572 5560 5549 5536 5523 5512 5505 5500 5496 5493 5490 5487
5753 5754 5754 5755 5754 5754 5753 5751 5749 5746 5743 5739 5735 5730 5726 5721 5716 5710 5703 5696 5689 5680 5673 5665 5656 5646 5637 5626 5616 5605 5594 5583 5572 5561 5550 5538 5526 5513 5504 5498 5494 5490 5487 5484
5747 5749 5750 5750 5750 5749 5748 5746 5745 5742 5740 5736 5732 5728 5723 5717 5711 5705 5700 5692 5685 5678 5670 5663 5654 5645 5635 5625 5616 5605 5594 5583 5572 5562 5550 5539 5527 5515 5504 5496 5491 5487 5484 5480
5743 5744 5745 5745 5745 5745 5744 5742 5740 5739 5736 5732 5728 5724 5719 5713 5708 5702 5695 5689 5683 5675 5668 5660 5652 5643 5634 5624 5614 5604 5594 5582 5572 5561 5550 5539 5528 5518 5504 5495 5490 5485 5481 5478
5737 5738 5741 5741 5741 5740 5739 5738 5736 5733 5731 5727 5723 5719 5715 5710 5705 5699 5693 5687 5680 5673 5665 5658 5649 5641 5631 5622 5613 5603 5593 5582 5571 5560 5549 5539 5526 5514 5504 5494 5487 5483 5479 5475
5732 5734 5736 5737 5737 5735 5735 5733 5732 5729 5726 5722 5719 5714 5710 5705 5699 5694 5689 5683 5677 5670 5662 5655 5647 5638 5629 5619 5611 5602 5591 5581 5571 5559 5549 5539 5528 5516 5502 5491 5485 5481 5477 5473
5726 5729 5732 5732 5732 5731 5730 5728 5726 5724 5721 5718 5715 5710 5705 5701 5696 5691 5686 5681 5674 5667 5660 5652 5644 5635 5627 5618 5609 5599 5589 5580 5569 5560 5548 5537 5528 5518 5506 5494 5484 5478 5475 5471
5723 5724 5726 5727 5727 5727 5725 5723 5721 5718 5716 5713 5709 5705 5700 5696 5693 5688 5682 5677 5670 5663 5656 5649 5641 5633 5624 5616 5607 5597 5587 5577 5568 5558 5548 5538 5528 5517 5506 5494 5484 5477 5472 5469
5717 5719 5720 5721 5721 5721 5720 5718 5715 5713 5710 5707 5705 5701 5697 5693 5688 5684 5678 5673 5667 5661 5653 5646 5638 5630 5622 5613 5604 5595 5586 5576 5567 5556 5548 5536 5526 5516 5505 5495 5484 5476 5471 5467
5712 5713 5714 5715 5716 5716 5715 5713 5710 5708 5705 5702 5700 5697 5693 5689 5685 5680 5674 5669 5663 5657 5650 5643 5635 5627 5620 5610 5602 5593 5584 5575 5565 5555 5545 5535 5525 5515 5505 5495 5484 5474 5468 5464
5706 5707 5708 5709 5709 5709 5708 5706 5704 5702 5699 5696 5694 5691 5688 5684 5679 5675 5670 5665 5659 5652 5647 5640 5632 5623 5615 5607 5599 5590 5582 5572 5563 5553 5543 5534 5524 5514 5504 5494 5484 5473 5465 5460
5699 5701 5703 5703 5704 5703 5701 5700 5698 5696 5693 5690 5688 5685 5682 5679 5675 5670 5665 5660 5655 5649 5643 5636 5629 5621 5612 5604 5596 5587 5578 5569 5560 5551 5541 5532 5522 5513 5503 5494 5484 5473 5464 5457
5693 5693 5695 5696 5697 5697 5695 5693 5691 5689 5687 5684 5682 5679 5677 5673 5670 5665 5660 5656 5651 5647 5638 5632 5625 5617 5609 5600 5592 5584 5575 5566 5557 5548 5539 5530 5521 5512 5502 5493 5483 5473 5463 5455
5686 5687 5690 5690 5690 5690 5689 5687 5685 5683 5680 5678 5676 5673 5670 5667 5664 5660 5656 5651 5646 5641 5635 5628 5621 5613 5606 5597 5589 5580 5571 5563 5554 5546 5537 5528 5519 5510 5501 5492 5483 5473 5463 5454
5680 5682 5683 5683 5684 5684 5683 5681 5678 5677 5675 5672 5670 5668 5665 5661 5658 5654 5651 5647 5642 5636 5630 5623 5616 5609 5601 5593 5585 5576 5567 5559 5550 5541 5533 5525 5516 5507 5499 5491 5482 5473 5463 5453
5673 5674 5675 5676 5677 5677 5675 5674 5672 5671 5668 5666 5664 5661 5659 5656 5653 5649 5645 5642 5637 5631 5625 5618 5611 5604 5596 5588 5580 5571 5563 5555 5546 5538 5529 5521 5513 5504 5496 5488 5480 5471 5462 5452
5667 5667 5668 5669 5669 5668 5667 5666 5664 5663 5661 5659 5656 5654 5653 5650 5647 5643 5639 5635 5629 5624 5619 5612 5606 5599 5591 5583 5575 5566 5558 5550 5542 5533 5525 5517 5508 5500 5493 5485 5478 5469 5460 5452
5660 5660 5661 5662 5661 5660 5658 5658 5657 5655 5654 5652 5650 5648 5647 5644 5641 5637 5633 5629 5624 5618 5612 5606 5599 5592 5584 5576 5568 5560 5552 5544 5536 5528 5520 5512 5504 5496 5488 5481 5474 5466 5457 5450
5652 5651 5653 5653 5652 5652 5651 5649 5648 5647 5645 5644 5641 5639 5639 5636 5633 5629 5625 5621 5616 5610 5604 5598 5591 5584 5577 5569 5562 5553 5545 5538 5530 5522 5515 5507 5499 5491 5483 5476 5469 5461 5453 5446
5643 5642 5643 5644 5644 5643 5642 5640 5639 5637 5636 5635 5633 5630 5629 5628 5625 5620 5617 5612 5608 5602 5596 5590 5584 5577 5569 5561 5554 5546 5539 5531 5524 5516 5508 5501 5493 5485 5478 5470 5463 5455 5448 5441